Airfield :
LOGIN :

Register | Disclaimer

   EN    FR    IT 

 










Legend :    VFR   Marginal VFR   IFR   Intensive IFR   Very Intensive IFR
Visi :
Ceiling :
>= 8 km
>= 3000ft
5 to 8 km
1000 to 3000 ft
1500m to 5 km
500 to 1000 ft
800 to 1500m
200 to 500 ft
< 800m
< 200 ft
Symbols :   Thunderstorms  Fog  Heavy snow  Heavy precipitations  Wind > 20 kt
SIGMETs :     Misc.  Thunderstorms  Icing  Turbulence  Mountain Waves  Volcanic Ashes







- Airport Elevation : 636 ft


LPBJ - Beja Air Base

CURRENT METAR :
  • 210100Z 33004KT 9999 VCFG SCT004 18/17 Q1024

EXPIRED METARs :
  • 210000Z 32008KT 9999 VCFG BKN005 18/18 Q1023
  • 202300Z 31006KT 9999 FEW015 18/18 Q1023

TAF TAF LPBJ
Valid from the 21 at 00:00 until the 22 at 00:00 UTC


202305Z 2100/2124 31005KT 9999 SCT012
BECMG 2100/2102 VRB02KT 0500 FG OVC002
BECMG 2105/2108 33005KT 5000 BR SCT007 BKN012
TEMPO 2105/2110 3000 -RADZ BR SCT003 BKN008
BECMG 2110/2113 34012KT 9999 NSW SCT015 SCT025
No reported NOTAMs for that airfield.



MET'MAP, your aeronautical weather chart ! - Copyright ORBIFLY December 2007 - Disclaimer

ORBIFLY MET'MAP TEAM :

Programming & Development : Alexandra Zaïnal
Concept & Development : Baudouin d'Aumeries
Co-Development & Prog : Marc-Olivier Méhu
Technical & hardware support : Manuel Goepfert

Contact : metmap@orbifly.com




SOURCES & CREDITS :

   NOAA